Theta_e
324 323 324 325 325 325 325 325 326 328 328 327 326 325 325 326 327 327 328 328 327 328 328 328 327 327 328 327 327 327 326 326 326 325 325 324 322 322 323 321 320 321
326 324 324 325 324 324 324 325 326 328 328 327 327 326 326 327 327 329 328 328 328 327 326 326 326 326 327 327 326 326 325 325 325 326 324 323 322 322 322 321 321 319
325 324 324 325 325 325 325 325 326 328 329 328 328 327 327 328 327 328 328 327 327 325 325 325 326 326 327 327 326 326 325 324 324 324 324 323 321 322 322 321 320 320
323 323 324 325 325 325 326 326 325 326 326 326 326 326 327 327 327 326 326 330 325 324 323 324 325 326 327 327 326 325 324 324 324 324 323 321 322 322 321 321 320 320
325 324 323 324 324 323 323 325 326 325 326 326 326 326 326 324 325 325 325 325 324 323 323 324 324 325 325 325 325 324 322 322 321 323 323 321 321 322 320 322 320 320
325 325 324 324 323 323 322 323 326 326 326 325 325 326 325 325 325 325 325 324 324 323 323 323 324 324 325 324 324 324 323 322 321 322 322 322 320 320 323 322 321 320
324 325 325 325 324 324 324 325 325 326 326 325 325 325 325 324 323 323 324 324 324 323 323 322 323 323 323 323 323 322 321 321 321 322 322 320 321 320 321 321 321 321
325 326 326 325 323 323 323 324 325 324 324 325 325 325 325 325 324 323 323 324 323 323 322 322 322 323 321 322 322 321 320 321 321 321 321 321 320 321 321 322 321 321
326 326 326 324 322 322 324 323 324 324 325 325 325 324 324 324 324 323 323 323 323 322 321 321 322 322 321 321 321 321 321 320 322 322 322 321 321 321 322 321 320 320
326 327 326 325 321 322 323 322 324 324 326 325 325 324 324 323 323 323 322 323 323 321 320 320 320 321 321 322 322 321 321 321 321 321 322 322 322 322 322 321 321 319
323 325 326 325 321 321 323 323 323 324 325 326 324 323 323 322 323 323 322 322 322 320 319 318 319 321 321 320 320 320 321 321 321 320 320 320 321 322 324 321 321 321
323 324 325 323 321 321 322 323 323 324 324 324 325 324 322 322 322 322 322 321 321 320 318 317 318 319 320 319 318 317 317 319 319 319 319 319 318 319 321 320 321 321
322 323 323 322 322 322 322 323 323 323 324 324 324 323 322 322 322 322 321 321 319 316 315 314 315 316 317 316 315 315 315 315 316 317 316 316 316 317 319 319 319 319
319 320 322 323 323 323 322 322 322 322 323 324 323 322 322 321 321 320 317 315 313 311 309 309 309 309 308 310 312 314 313 312 314 315 314 313 314 315 317 318 318 318
314 320 320 322 323 323 322 321 321 321 322 322 322 322 321 321 318 315 312 309 307 306 306 306 306 305 304 306 311 310 311 312 313 314 314 313 312 313 314 314 313 312
309 317 321 321 321 322 322 321 321 320 321 321 321 318 317 315 314 312 310 307 305 303 303 303 302 301 302 301 306 309 311 312 312 311 313 314 315 314 313 314 313 312
307 311 320 320 320 322 321 321 321 320 320 321 319 316 313 313 313 310 307 306 304 303 301 300 299 299 296 296 298 305 310 311 311 311 311 314 315 315 313 311 308 308
305 308 315 319 320 320 321 321 320 319 319 318 314 313 311 310 309 307 305 303 302 301 299 298 297 296 293 296 297 302 307 311 311 313 313 313 313 313 312 308 306 305
304 306 309 318 319 320 320 319 320 318 316 313 310 310 308 306 304 303 302 301 301 299 298 298 297 294 293 296 298 301 302 307 310 310 311 310 311 310 308 306 304 303
303 304 305 309 318 319 317 318 317 315 311 309 307 306 304 302 301 300 299 299 300 299 298 298 297 295 294 297 298 298 300 305 311 310 310 309 309 308 305 303 301 300
303 303 304 305 307 313 316 314 312 308 306 305 304 303 302 300 298 297 297 298 298 299 298 297 295 293 295 297 298 298 300 303 307 306 304 302 301 300 299 298 297 298
302 302 302 303 305 305 307 307 306 304 302 302 301 300 299 298 297 297 296 297 298 298 298 296 295 293 296 297 297 297 299 304 303 301 299 298 297 297 297 297 296 296
301 302 301 302 303 303 303 303 302 302 301 301 299 299 297 296 295 295 296 296 297 297 296 295 295 293 294 296 296 297 299 302 300 298 297 296 296 296 297 298 297 295
301 301 301 301 301 301 302 302 302 301 300 300 298 297 296 296 296 296 296 296 296 295 296 295 295 294 293 294 296 296 300 301 299 297 295 294 294 294 295 296 299 301
300 301 301 301 300 301 302 302 301 300 299 299 298 297 297 297 297 296 296 297 297 297 299 296 295 295 293 293 294 296 300 300 299 297 296 294 294 294 294 295 295 296
299 300 301 301 301 300 301 302 302 300 299 299 298 298 298 297 298 297 297 297 297 297 297 296 295 294 294 293 294 295 297 301 300 298 296 296 295 295 295 295 295 294
Wind_Speed
5 3 3 6 7 6 6 6 5 6 7 7 7 7 7 6 6 8 8 8 9 9 7 7 6 6 6 6 7 6 6 6 6 6 6 6 5 6 6 6 5 6
7 4 3 4 4 4 5 4 4 5 6 7 7 7 6 6 6 8 8 9 8 7 6 6 6 6 6 6 6 6 5 5 6 4 6 6 6 6 6 6 6 4
6 5 6 7 7 5 4 3 4 5 5 6 7 7 7 7 7 7 8 8 7 6 5 5 6 6 6 6 6 6 6 6 6 5 5 6 5 6 5 5 5 6
5 4 5 6 6 6 6 3 1 3 4 5 4 4 4 5 6 7 6 7 7 6 5 5 6 6 6 6 7 6 6 6 6 6 6 4 4 5 5 5 4 4
5 7 7 7 4 1 0 1 4 3 1 2 4 6 6 2 5 6 7 6 7 6 5 6 6 6 6 6 6 6 5 6 5 5 6 5 4 4 4 5 4 4
5 7 9 6 2 2 3 4 7 8 8 6 4 1 2 7 4 5 7 7 6 7 6 6 6 6 7 7 6 6 6 6 5 5 5 5 4 3 4 4 5 4
7 8 9 6 3 6 5 6 6 5 5 5 5 6 4 3 5 6 6 7 7 6 7 6 6 6 6 6 6 6 5 6 6 5 5 4 4 4 3 4 5 5
9 8 8 4 5 6 6 1 2 3 1 3 5 4 5 4 5 7 6 6 6 6 6 6 6 6 5 6 6 6 5 5 6 6 5 5 5 5 4 5 5 5
8 7 6 5 7 7 5 5 4 7 7 7 7 6 6 6 5 8 7 6 6 6 6 6 6 6 6 6 6 7 7 5 5 6 6 6 6 6 6 5 4 5
5 7 8 6 6 5 6 8 8 7 7 6 6 6 6 5 4 6 7 6 7 6 6 6 6 6 6 6 7 7 6 7 6 6 6 7 7 6 6 5 6 5
4 3 5 7 8 9 9 10 10 9 8 8 7 6 6 6 5 5 7 7 7 7 6 6 6 6 7 5 4 5 6 6 6 6 6 6 6 6 6 6 6 6
4 3 4 6 9 10 8 9 9 9 8 7 8 9 6 7 7 7 7 7 7 6 6 6 6 6 7 6 5 4 4 5 6 6 5 5 5 5 5 6 6 6
6 3 3 6 7 7 6 7 8 9 9 9 9 10 9 8 7 8 6 6 5 5 5 5 5 5 5 5 4 4 5 5 5 5 4 4 4 5 5 5 5 5
6 4 4 5 5 5 7 7 6 7 8 9 9 10 10 9 8 6 3 4 5 5 4 3 4 4 4 4 4 5 5 4 5 5 4 4 4 4 4 5 5 4
11 6 3 4 5 6 6 5 5 5 7 7 5 8 7 8 8 4 6 6 5 5 5 3 4 4 3 4 5 4 4 5 4 5 5 5 4 3 2 2 4 4
10 10 4 3 5 8 8 8 7 5 4 8 7 3 4 8 9 7 8 7 6 5 4 4 3 2 1 3 3 4 5 4 4 5 5 5 5 5 5 5 4 5
10 11 6 5 6 6 7 8 10 9 9 8 8 8 6 9 10 9 7 8 9 8 6 4 2 1 1 4 3 6 6 6 6 4 4 5 5 6 6 6 5 5
10 11 9 5 7 7 8 9 9 11 11 9 7 8 5 8 10 9 9 8 7 7 7 5 3 3 3 3 3 5 6 7 6 6 4 4 5 6 6 6 6 5
10 10 11 5 8 8 8 9 12 11 11 9 6 7 7 10 9 9 8 6 8 9 7 5 3 4 3 3 5 7 8 9 6 6 7 6 6 7 6 6 5 5
11 11 11 11 5 8 6 10 10 10 8 7 10 7 7 10 9 10 7 5 5 8 8 6 4 5 3 6 10 11 13 12 7 8 8 8 7 7 6 6 5 6
13 13 13 10 11 6 6 6 8 8 9 7 7 8 7 10 11 10 7 6 5 5 7 7 4 6 5 11 13 14 15 13 9 9 9 8 8 7 7 6 6 6
12 14 13 13 11 13 10 4 9 10 10 6 6 7 5 6 8 8 8 7 6 5 7 8 7 10 9 11 14 15 16 10 9 10 9 9 8 7 7 6 5 6
12 13 15 14 13 12 13 9 8 11 9 8 9 6 7 6 9 8 6 8 8 7 8 8 8 9 11 9 11 16 14 9 10 10 9 9 8 6 7 6 5 5
13 10 14 14 13 13 11 10 6 9 10 8 9 6 4 8 7 10 9 9 10 9 7 9 8 10 12 10 8 9 13 11 9 10 9 9 8 7 7 7 8 13
12 11 12 15 14 14 11 8 9 8 10 10 9 8 6 8 8 10 10 10 10 10 12 12 9 10 13 12 12 9 9 9 10 10 10 7 7 8 6 6 6 8
12 12 10 13 14 14 13 10 7 8 10 12 10 7 8 10 10 10 12 10 9 9 9 9 10 9 11 15 14 14 11 8 6 10 10 8 6 6 7 6 6 6
Wind_Direction
247 239 202 199 195 188 186 184 191 195 193 189 198 197 195 200 183 183 190 185 192 203 187 180 175 175 172 168 169 165 173 177 176 173 176 173 183 175 182 177 176 183
229 214 216 226 223 193 193 193 195 205 209 201 199 190 191 182 191 185 184 185 190 192 181 172 173 172 170 170 166 163 166 170 175 167 168 176 184 179 189 182 181 174
221 206 200 209 211 207 195 188 209 218 220 219 203 191 188 186 184 186 177 176 181 179 175 175 174 175 172 170 166 165 168 170 175 171 166 182 174 183 190 174 168 176
280 257 228 218 209 207 201 160 93 8 352 335 305 271 208 177 178 174 172 171 167 164 170 170 175 171 171 169 162 166 170 174 174 164 168 164 183 177 175 170 162 166
272 272 253 234 216 100 25 160 122 134 109 11 349 338 314 264 181 171 169 168 162 161 164 169 165 165 162 159 157 156 160 159 159 163 164 173 180 170 173 160 161 171
218 235 252 248 193 137 122 171 161 171 175 150 121 130 323 312 278 192 171 164 166 161 165 161 161 162 161 157 157 163 160 154 157 150 163 172 168 169 160 168 160 168
234 236 241 235 150 112 191 188 178 182 182 164 152 152 144 211 272 275 188 164 161 165 160 162 159 162 164 156 157 161 166 161 157 153 159 173 161 167 163 165 168 172
218 228 234 236 118 150 209 138 85 69 73 146 164 156 134 168 228 255 232 161 161 162 163 161 163 163 163 159 162 166 174 168 166 165 168 172 173 176 178 173 166 172
214 216 219 197 155 182 187 126 156 174 171 182 174 165 151 160 197 242 233 163 163 163 163 166 166 164 168 167 171 174 175 176 175 173 175 177 184 188 184 166 161 179
235 204 196 192 178 203 177 157 183 180 181 177 168 162 157 150 142 230 234 170 164 165 167 170 167 166 171 179 178 176 173 176 178 180 181 184 187 188 178 166 175 178
277 261 204 188 172 200 193 175 178 175 175 171 159 158 147 145 155 229 218 169 169 168 171 170 175 173 175 181 182 178 180 177 178 179 183 184 187 185 176 172 174 189
281 260 237 190 181 205 186 184 177 174 168 165 163 162 163 157 142 218 211 178 170 168 167 169 168 175 176 177 179 182 182 180 177 178 183 181 182 182 179 180 183 193
283 268 220 199 195 196 194 192 187 178 170 170 168 164 164 158 157 209 215 170 156 142 151 155 161 171 171 165 170 179 181 177 175 178 178 181 186 186 187 190 190 181
300 251 219 212 208 200 201 193 190 182 172 166 169 168 167 152 146 221 178 132 127 119 103 111 130 131 132 146 161 175 176 180 173 173 171 183 188 193 184 190 190 180
322 289 224 215 208 197 195 168 174 190 165 152 165 158 149 146 134 196 125 106 90 102 103 90 108 117 126 142 154 164 167 165 169 167 170 171 173 171 123 78 62 65
333 313 246 175 173 192 180 159 164 169 164 156 144 136 157 133 131 149 129 131 120 103 100 99 97 105 103 129 146 164 154 151 147 158 156 151 143 117 82 71 67 68
338 333 287 178 195 198 174 169 160 162 165 167 165 155 163 151 145 138 139 143 141 138 124 107 85 12 7 119 130 164 142 145 148 143 137 141 137 125 115 98 77 65
336 333 310 211 192 205 191 177 165 162 167 163 155 145 166 146 136 138 141 138 128 122 111 108 95 3 1 86 135 151 144 139 139 138 128 99 94 103 102 101 89 72
350 340 330 263 196 204 192 182 172 163 158 149 141 138 152 138 133 131 134 142 136 124 113 101 85 10 21 98 129 125 128 111 90 94 94 93 91 93 95 96 98 90
8 356 343 335 266 190 197 186 176 154 131 130 135 134 150 128 127 122 121 129 128 121 115 96 75 353 35 120 124 120 109 97 95 93 90 86 88 89 90 87 86 95
14 10 357 344 3 333 201 171 133 112 112 124 126 132 139 135 130 121 116 112 98 94 99 82 50 17 80 116 117 109 99 97 94 91 86 83 77 79 81 84 85 87
7 26 2 3 5 22 353 93 107 106 107 87 87 90 84 102 87 97 106 98 88 87 89 77 48 45 82 107 112 106 97 92 93 91 90 85 81 78 78 72 70 80
357 27 26 4 14 27 14 346 88 100 89 98 92 74 104 82 94 86 82 85 78 71 81 76 56 42 70 84 107 111 100 101 98 93 88 85 77 73 74 71 65 65
353 13 43 19 18 24 27 359 9 75 77 77 86 73 64 86 90 86 72 69 71 66 63 80 62 41 61 70 70 95 114 113 110 104 96 95 90 75 75 68 60 67
355 0 41 45 24 24 20 27 9 52 84 74 79 78 65 71 74 77 74 63 61 68 63 70 66 44 47 62 67 68 93 110 111 110 103 95 96 88 74 76 68 55
359 360 18 54 46 35 23 20 26 43 58 82 67 65 71 64 59 63 68 59 53 56 59 59 65 56 45 58 62 59 61 86 97 108 110 106 89 85 84 66 62 59